[[{"header":{"parameterUnit":"m.s-1","parameterCategory":2,"la1":30.2991,"la2":30.254,"lo1":-89.0895,"lo2":-89.0444,"dy":0.0017,"dx":0.0017,"nx":28,"ny":28,"refTime":"2024-08-29T09:00:00:Z","depth":"0","parameterNumber":2,"parameterNumberName":"U-component_of_CURRENTS"},"data":[0,0,0,0,0,0,0,0,0,0,0,0,0,0,0,0,0,0,0,0,0,0,0,0,0,0,0,0,0,0,0,0,0,0,0,0,0,0,0,0,0,0,0,0,0,0,0,0,0,0,0,0,0,0,0,0,0,0,0.3201,0.3202,0,0.325,0.325,0.3251,0.3246,0.3246,0.3246,0.3245,0.3248,0.3249,0.3249,0,0,0,0,0,0,0,0,0,0,0,0,0,0.3122,0.3123,0.3201,0.3202,0.3203,0.325,0.325,0.3251,0.3246,0.3246,0.3245,0.3245,0.3248,0.3249,0.3249,0,0,0,0,0,0,0,0,0,0,0,0,0,0.3159,0.3124,0.32,0.3209,0.321,0.325,0.325,0.3251,0.3247,0.3246,0.3245,0.3245,0.3248,0.3249,0.3249,0.3266,0,0,0.3251,0.3252,0,0,0,0,0,0,0,0,0.3157,0.3161,0.3207,0.3208,0.321,0.3245,0.3224,0.3255,0.3247,0.3229,0.3245,0.3244,0.3246,0.3246,0.3253,0.3266,0.3266,0.3251,0.3252,0.3252,0.3252,0,0,0,0,0,0,0,0.3154,0.3159,0.3216,0.3208,0.321,0.3217,0.3221,0.323,0.3236,0.323,0.3231,0.3243,0.3246,0.3252,0.3253,0.3266,0.3251,0.3252,0.3253,0.3253,0.333,0.3332,0,0,0,0,0,0,0.3156,0.3157,0.3215,0.3218,0.3186,0.3219,0.3224,0.3231,0.3237,0.3239,0.3243,0.3242,0.3251,0.3252,0.3253,0.3296,0.3252,0.3253,0.3253,0.3328,0.333,0.3332,0,0,0,0,0,0,0.3154,0.316,0.3213,0.3192,0.3199,0.3222,0.323,0.3233,0.3245,0.3248,0.3248,0.3254,0.3251,0.3252,0.3275,0.3295,0.3253,0.3254,0.3327,0.3329,0.3331,0.3368,0,0,0,0,0,0,0.3151,0.3159,0.3163,0.3192,0.3201,0.3244,0.3231,0.3234,0.3255,0.3254,0.3258,0.3257,0.325,0.3274,0.3275,0.3295,0.3254,0.3324,0.3328,0.3331,0.3365,0.3372,0.3378,0,0,0,0,0,0.3148,0.316,0.3163,0.3171,0.3207,0.3245,0.325,0.3261,0.3256,0.3268,0.3274,0.3257,0.3294,0.3276,0.3277,0.3298,0.3323,0.3327,0.333,0.3362,0.3371,0.3377,0,0,0,0,0,0,0.3128,0.3162,0.3166,0.3186,0.3217,0.3246,0.3261,0.3268,0.3283,0.3282,0.3277,0.3277,0.331,0.3302,0.3282,0.3332,0.3307,0.3311,0.3331,0.3338,0.3345,0.336,0.3255,0,0,0,0,0,0.3127,0.3144,0.3178,0.3197,0.3214,0.3238,0.3255,0.3265,0.3285,0.3291,0.3294,0.3304,0.3327,0.333,0.3347,0.3368,0.3379,0.3385,0.3391,0.3396,0.3412,0.3444,0.3454,0.3344,0.3344,0.3344,0,0,0.3124,0.3147,0.3155,0.3194,0.3217,0.325,0.3246,0.3278,0.3304,0.3289,0.3319,0.3329,0.3341,0.3371,0.3384,0.3364,0.3435,0.3401,0.3405,0.3418,0.3449,0.346,0.3469,0.3347,0.3346,0.3346,0,0,0.3134,0.315,0.3169,0.3196,0.3238,0.3262,0.3274,0.3308,0.3321,0.3352,0.3357,0.3383,0.3399,0.342,0.3431,0.3483,0.3474,0.3484,0.3518,0.3549,0.3558,0.3566,0.3598,0.3608,0.3478,0.3478,0.3478,0,0.3128,0.3156,0.3181,0.321,0.3237,0.3269,0.3299,0.3327,0.3362,0.3378,0.3364,0.342,0.3427,0.3479,0.3501,0.3497,0.3512,0.3484,0.3556,0.3564,0.3572,0.3602,0.3614,0.3481,0.348,0.348,0.348,0,0.3151,0.3177,0.3196,0.3242,0.3274,0.3308,0.3353,0.338,0.3396,0.3419,0.3468,0.3485,0.3516,0.3526,0.353,0.3594,0.3587,0.3565,0.3533,0.3585,0.3614,0.3625,0.3484,0.3483,0.3482,0.3482,0,0,0.3127,0.3197,0.3201,0.3221,0.3292,0.3315,0.3373,0.3428,0.3459,0.349,0.3529,0.358,0.3588,0.3604,0.3614,0.3644,0.3713,0.3631,0.3631,0.3656,0.3787,0.378,0.3791,0.3699,0.3701,0.3702,0.3787,0,0.3137,0.3183,0.3225,0.3272,0.33,0.3352,0.3401,0.3452,0.3493,0.3538,0.3574,0.3616,0.3618,0.3633,0.3671,0.3713,0.3744,0.3693,0.374,0.3742,0.3723,0.3804,0.3706,0.3773,0.3797,0.3799,0.38,0,0.3142,0.3173,0.3217,0.3279,0.3296,0.3329,0.3402,0.345,0.3533,0.3562,0.3618,0.3652,0.3731,0.3704,0.3807,0.3774,0.3791,0.381,0.3812,0.3802,0.3755,0.3725,0.3792,0.3696,0.3817,0.3816,0.3814,0,0.3094,0.3163,0.3193,0.3215,0.3297,0.3319,0.3361,0.3446,0.3507,0.3578,0.3639,0.3707,0.3772,0.3804,0.3876,0.384,0.3978,0.392,0.3928,0.3927,0.3854,0.3843,0.3827,0.3978,0.3978,0.3978,0.3977,0,0.3084,0.3105,0.3166,0.3177,0.3216,0.3276,0.3333,0.3385,0.3492,0.3567,0.3646,0.373,0.3805,0.3899,0.3908,0.3984,0.4007,0.3965,0.396,0.3865,0.3855,0.3774,0.3733,0.3981,0.398,0.3979,0.3979,0,0.3037,0.3079,0.3111,0.3175,0.3193,0.3214,0.3323,0.3371,0.348,0.3586,0.3621,0.3787,0.3901,0.3981,0.4057,0.4051,0.3986,0.4095,0.3989,0.3969,0.3852,0.3817,0.3671,0.3557,0.4105,0.4105,0.4106,0,0.3022,0.3031,0.3088,0.3104,0.3132,0.318,0.3223,0.3338,0.3406,0.3614,0.3664,0.384,0.3935,0.4087,0.4112,0.415,0.4006,0.4062,0.3969,0.3865,0.3822,0.3641,0.3541,0.3887,0.3886,0.3885,0.3884,0,0.2992,0.3009,0.3034,0.3058,0.309,0.3134,0.32,0.3258,0.3401,0.3521,0.3662,0.376,0.3957,0.3982,0.4082,0.408,0.3877,0.4039,0.3953,0.3687,0.3467,0.3347,0.3815,0.3873,0.3874,0.3875,0.3876,0.3876,0.2968,0.2968,0.2989,0.2999,0.3034,0.3045,0.3038,0.3139,0.3232,0.335,0.3543,0.3644,0.3826,0.3963,0.3936,0.3875,0.3813,0.3762,0.3743,0.3578,0.3419,0.3879,0.3913,0.3914,0.3916,0.3916,0.3917,0,0.2908,0.2905,0.2924,0.2913,0.2893,0.2943,0.2988,0.2962,0.2998,0.3174,0.3285,0.3488,0.3564,0.3663,0.3737,0.3616,0.3404,0.3502,0.3221,0.3147,0.3593,0.3536,0.3462,0.3462,0.3462,0.3462,0.3462,0.3463,0.2878,0.2844,0.2832,0.2753,0.2745,0.2669,0.2654,0.2652,0.2729,0.2817,0.2931,0.3099,0.3395,0.3559,0.3494,0.3403,0.3112,0.2982,0.2928,0.3266,0.3287,0.3307,0.3242,0.3108,0.3107,0.2342,0.2337,0.2333]},{"header":{"parameterUnit":"m.s-1","parameterCategory":2,"la1":30.2991,"la2":30.254,"lo1":-89.0895,"lo2":-89.0444,"dy":0.0017,"dx":0.0017,"nx":28,"ny":28,"refTime":"2024-08-29T09:00:00:Z","depth":"0","parameterNumber":3,"parameterNumberName":"V-component_of_CURRENTS"},"data":[0,0,0,0,0,0,0,0,0,0,0,0,0,0,0,0,0,0,0,0,0,0,0,0,0,0,0,0,0,0,0,0,0,0,0,0,0,0,0,0,0,0,0,0,0,0,0,0,0,0,0,0,0,0,0,0,0,0,0.0223,0.0222,0,0.0154,0.0153,0.0152,0.0101,0.01,0.01,0.01,-0.0009,-0.0011,-0.0014,0,0,0,0,0,0,0,0,0,0,0,0,0,0.0249,0.0249,0.0223,0.0222,0.0222,0.0155,0.0153,0.0152,0.0101,0.01,0.01,0.01,-0.0008,-0.0011,-0.0014,0,0,0,0,0,0,0,0,0,0,0,0,0,0.0212,0.0249,0.0223,0.019,0.0187,0.0155,0.0153,0.0152,0.0101,0.01,0.01,0.01,-0.0007,-0.0011,-0.0015,-0.0033,0,0,-0.0027,-0.0029,0,0,0,0,0,0,0,0,0.0215,0.0211,0.0196,0.0192,0.0188,0.0138,0.0123,0.0089,0.0101,0.013,0.01,0.01,0.0039,0.0031,0.0015,-0.0038,-0.0043,-0.0028,-0.003,-0.0032,-0.0033,0,0,0,0,0,0,0,0.0217,0.0213,0.0193,0.0195,0.0191,0.0158,0.0153,0.0116,0.0084,0.0128,0.0125,0.0121,0.0036,0.0019,0.0012,-0.0044,-0.0027,-0.0031,-0.0034,-0.0035,-0.0101,-0.01,0,0,0,0,0,0,0.0235,0.0216,0.0195,0.0191,0.0204,0.0158,0.0152,0.0152,0.0086,0.0076,0.0122,0.0119,0.0026,0.0017,0.0008,0.0005,-0.0032,-0.0035,-0.0038,-0.0102,-0.0101,-0.01,0,0,0,0,0,0,0.0236,0.0234,0.0198,0.0204,0.0198,0.0159,0.0159,0.0151,0.014,0.0082,0.0071,0.012,0.0026,0.0014,-0.0018,-0.0,-0.0037,-0.0041,-0.0103,-0.0102,-0.0101,-0.0015,0,0,0,0,0,0,0.0237,0.0234,0.024,0.0206,0.0198,0.0191,0.0159,0.015,0.014,0.0136,0.0077,0.0066,0.0025,-0.0011,-0.0022,-0.0006,-0.0044,-0.0103,-0.0102,-0.0101,-0.0019,-0.0011,-0.0005,0,0,0,0,0,0.0238,0.0254,0.024,0.0238,0.0207,0.0192,0.0186,0.0154,0.0141,0.0142,0.01,0.0068,-0.0011,-0.0014,-0.0027,-0.0012,-0.0104,-0.0102,-0.0101,-0.0022,-0.0013,-0.0005,0,0,0,0,0,0,0.0267,0.0249,0.0234,0.0243,0.0223,0.0185,0.0185,0.0164,0.0131,0.0129,0.007,0.0057,0.0038,0.0001,-0.0002,-0.0027,-0.006,-0.0061,0.0005,0.0012,0.0019,0.004,-0.0047,0,0,0,0,0,0.0278,0.0284,0.0258,0.0264,0.0259,0.0223,0.0213,0.0195,0.0163,0.0149,0.0107,0.0065,0.0034,0.0014,-0.0021,-0.0039,-0.0076,-0.0036,-0.0029,-0.0023,-0.0013,-0.0059,-0.0055,-0.0095,-0.0095,-0.0095,0,0,0.029,0.0281,0.0283,0.027,0.0252,0.0258,0.0216,0.0212,0.0215,0.0142,0.013,0.0088,0.0035,0.0018,0.0006,-0.0012,-0.0029,-0.0021,-0.0015,-0.0009,-0.0057,-0.0053,-0.0049,-0.0094,-0.0094,-0.0095,0,0,0.0325,0.0312,0.0331,0.0318,0.0303,0.0288,0.0293,0.0262,0.0245,0.0227,0.0181,0.0146,0.0097,0.0061,0.0037,0.006,0.001,0.0056,0.0104,0.0061,0.0064,0.0066,0.0031,0.0029,0.0057,0.0058,0.0058,0,0.034,0.036,0.0333,0.0346,0.0349,0.031,0.0335,0.0312,0.0273,0.0264,0.0237,0.0168,0.0117,0.0098,0.0104,0.0076,0.0048,0.0078,0.007,0.0072,0.0072,0.0036,0.0033,0.0062,0.0061,0.0061,0.006,0,0.0385,0.0399,0.041,0.0418,0.042,0.0432,0.0408,0.04,0.0377,0.035,0.0323,0.0251,0.0211,0.0191,0.0152,0.014,0.0119,0.0086,0.0052,0.0082,0.0041,0.0037,0.0068,0.0066,0.0065,0.0064,0,0,0.0425,0.0441,0.0446,0.0467,0.0462,0.0474,0.0481,0.048,0.049,0.0435,0.044,0.0368,0.0327,0.0297,0.0242,0.02,0.0174,0.0155,0.015,0.0126,0.0089,0.0083,0.0076,0.0143,0.0143,0.0142,0.0062,0,0.047,0.0524,0.0517,0.0571,0.0602,0.0573,0.0588,0.0577,0.0553,0.0542,0.0464,0.0443,0.0369,0.0353,0.0301,0.0212,0.0165,0.0199,0.0059,0.0055,0.005,0.0072,0.0111,0.0044,0.0057,0.0056,0.0055,0,0.0522,0.0554,0.0618,0.0663,0.0674,0.0694,0.0722,0.0725,0.069,0.0667,0.0622,0.0566,0.0502,0.0431,0.0291,0.0321,0.0216,0.0135,0.013,0.0092,0.004,0.0013,0.0034,-0.0161,0.0047,0.0048,0.0049,0,0.0582,0.0631,0.0692,0.07,0.0736,0.0756,0.0772,0.0761,0.0788,0.0741,0.0763,0.0659,0.0632,0.0486,0.0327,0.0309,0.0175,0.0121,0.0012,0.001,-0.0,-0.0002,-0.0179,0.0014,0.0014,0.0014,0.0014,0,0.0642,0.0688,0.0722,0.075,0.0827,0.0821,0.0891,0.0874,0.0888,0.0944,0.0833,0.086,0.0646,0.0551,0.0373,0.0197,0.0205,0.003,-0.0008,0.0032,0.0034,-0.0173,-0.028,0.0011,0.0012,0.0012,0.0013,0,0.0701,0.0716,0.0791,0.0839,0.0856,0.091,0.0984,0.1035,0.1025,0.1096,0.1095,0.1019,0.0889,0.0677,0.0446,0.0279,-0.0014,0.0017,0.0086,0.0057,-0.0233,-0.0334,-0.0543,-0.0621,-0.012,-0.0121,-0.0122,0,0.0738,0.078,0.0859,0.0911,0.0933,0.101,0.1071,0.1093,0.1161,0.1207,0.1259,0.1165,0.1134,0.08,0.0474,0.0167,-0.0026,-0.0011,-0.0054,-0.0236,-0.0379,-0.0455,-0.0512,-0.0038,-0.0038,-0.0037,-0.0037,0,0.0814,0.0837,0.0899,0.0998,0.1074,0.1175,0.1261,0.1343,0.1388,0.146,0.1528,0.1508,0.1211,0.0918,0.0497,0.0279,-0.0131,-0.0017,-0.0229,-0.0342,-0.0414,-0.051,0.0001,-0.0035,-0.0036,-0.0036,-0.0036,-0.0036,0.0872,0.093,0.1003,0.1098,0.1196,0.132,0.141,0.1525,0.1654,0.1776,0.1741,0.1759,0.1339,0.0774,0.044,-0.0129,-0.0149,-0.0305,-0.0416,-0.0479,-0.0548,-0.0025,-0.0091,-0.0092,-0.0092,-0.0092,-0.0093,0,0.0938,0.0999,0.1097,0.1211,0.1323,0.1358,0.1527,0.1629,0.1795,0.1935,0.2002,0.1837,0.1301,0.0751,-0.0023,-0.0449,-0.0594,-0.0679,-0.0791,-0.0834,-0.0387,-0.0376,-0.0477,-0.0477,-0.0477,-0.0477,-0.0476,-0.0476,0.0976,0.107,0.1112,0.1289,0.1374,0.1527,0.1627,0.1788,0.1927,0.2104,0.2157,0.2169,0.1758,0.0339,-0.064,-0.0863,-0.1149,-0.1205,-0.1375,-0.1089,-0.1063,-0.1038,-0.1054,-0.1296,-0.1297,-0.1747,-0.1752,-0.1756]}],[{"header":{"parameterUnit":"m.s-1","parameterCategory":2,"la1":30.2991,"la2":30.254,"lo1":-89.0895,"lo2":-89.0444,"dy":0.0017,"dx":0.0017,"nx":28,"ny":28,"refTime":"2024-08-29T09:00:00:Z","depth":"2","parameterNumber":2,"parameterNumberName":"U-component_of_CURRENTS"},"data":[0,0,0,0,0,0,0,0,0,0,0,0,0,0,0,0,0,0,0,0,0,0,0,0,0,0,0,0,0,0,0,0,0,0,0,0,0,0,0,0,0,0,0,0,0,0,0,0,0,0,0,0,0,0,0,0,0,0,0.2759,0.2759,0,0.2799,0.2799,0.2799,0.2806,0.2806,0.2806,0.2806,0.2825,0.2826,0.2827,0,0,0,0,0,0,0,0,0,0,0,0,0,0.2698,0.2698,0.2759,0.2759,0.276,0.2799,0.2799,0.28,0.2806,0.2806,0.2806,0.2806,0.2825,0.2826,0.2827,0,0,0,0,0,0,0,0,0,0,0,0,0,0.2727,0.2699,0.2759,0.277,0.2772,0.2799,0.2799,0.28,0.2806,0.2806,0.2806,0.2806,0.2825,0.2826,0.2827,0.2835,0,0,0.283,0.283,0,0,0,0,0,0,0,0,0.2725,0.2729,0.2768,0.277,0.2771,0.28,0.2785,0.2811,0.2806,0.279,0.2806,0.2806,0.2817,0.2818,0.2823,0.2836,0.2837,0.283,0.283,0.2831,0.2831,0,0,0,0,0,0,0,0.2723,0.2727,0.2772,0.2769,0.2771,0.2777,0.2781,0.279,0.2801,0.2792,0.2793,0.2802,0.2817,0.2822,0.2823,0.2837,0.283,0.283,0.2831,0.2831,0.2915,0.2916,0,0,0,0,0,0,0.2724,0.2725,0.2771,0.2773,0.2751,0.2778,0.2782,0.2789,0.2802,0.2805,0.2802,0.2802,0.282,0.2822,0.2824,0.2879,0.2831,0.2831,0.2832,0.2913,0.2915,0.2917,0,0,0,0,0,0,0.2722,0.2727,0.2769,0.2752,0.2759,0.278,0.2787,0.279,0.2808,0.281,0.2812,0.2819,0.282,0.2823,0.285,0.2878,0.2832,0.2833,0.2911,0.2914,0.2916,0.2961,0,0,0,0,0,0,0.272,0.2726,0.2734,0.2752,0.276,0.2796,0.2787,0.279,0.2814,0.2815,0.2826,0.2827,0.282,0.2849,0.2851,0.2879,0.2833,0.2909,0.2912,0.2915,0.2957,0.2965,0.2971,0,0,0,0,0,0.2718,0.2729,0.2734,0.274,0.2768,0.2797,0.2802,0.2814,0.2815,0.2829,0.2839,0.2827,0.287,0.2851,0.2853,0.2881,0.2907,0.2911,0.2915,0.2954,0.2963,0.2971,0,0,0,0,0,0,0.2706,0.2732,0.2737,0.2756,0.278,0.28,0.2816,0.2825,0.2844,0.2847,0.2844,0.2846,0.2885,0.2879,0.2857,0.2917,0.2889,0.2893,0.2918,0.2926,0.2933,0.2945,0.2834,0,0,0,0,0,0.2708,0.2724,0.2749,0.2766,0.2781,0.2801,0.2816,0.2827,0.2846,0.2854,0.2863,0.2877,0.2901,0.2909,0.2925,0.2952,0.2961,0.2975,0.2982,0.2987,0.3001,0.3035,0.3046,0.2929,0.2929,0.2929,0,0,0.2708,0.2726,0.2734,0.2766,0.2785,0.2813,0.281,0.2841,0.2867,0.2854,0.2891,0.2903,0.2915,0.295,0.2967,0.2948,0.3027,0.2992,0.2997,0.3007,0.304,0.3052,0.3062,0.2932,0.2931,0.2931,0,0,0.2717,0.2735,0.2751,0.2775,0.2812,0.283,0.2844,0.2874,0.2892,0.2925,0.2932,0.2963,0.2984,0.3005,0.3016,0.3072,0.3066,0.3078,0.3117,0.315,0.316,0.3169,0.3197,0.3208,0.3076,0.3076,0.3076,0,0.2716,0.274,0.2762,0.2787,0.2811,0.2842,0.2869,0.2896,0.2931,0.2951,0.2943,0.3004,0.3013,0.3067,0.3091,0.3088,0.3104,0.308,0.3158,0.3167,0.3175,0.3203,0.3214,0.3079,0.3079,0.3078,0.3078,0,0.2734,0.276,0.2777,0.2818,0.2847,0.2879,0.292,0.2954,0.2977,0.2999,0.3056,0.3074,0.3109,0.3121,0.3124,0.3193,0.3186,0.3165,0.3134,0.319,0.3215,0.3226,0.3083,0.3082,0.3081,0.308,0,0,0.2711,0.2776,0.278,0.2802,0.2867,0.2887,0.2948,0.3002,0.3039,0.3076,0.3122,0.3174,0.3187,0.3203,0.3215,0.3247,0.332,0.3237,0.3237,0.326,0.3399,0.3365,0.3373,0.3312,0.3314,0.3316,0.3395,0,0.2719,0.276,0.2799,0.2846,0.2872,0.2926,0.2975,0.3029,0.3076,0.3129,0.3169,0.3217,0.3217,0.324,0.3279,0.3317,0.3351,0.3301,0.3347,0.3349,0.3307,0.3386,0.3122,0.3168,0.3405,0.3407,0.3409,0,0.2718,0.2748,0.2791,0.2854,0.2871,0.2907,0.2987,0.3036,0.3126,0.3162,0.3225,0.3261,0.3343,0.3318,0.3416,0.3386,0.3405,0.3421,0.3423,0.3385,0.3336,0.3151,0.3178,0.3427,0.3425,0.3424,0.3423,0,0.2671,0.2738,0.277,0.2793,0.2874,0.2905,0.2951,0.3039,0.3102,0.3189,0.3251,0.3324,0.339,0.3425,0.3487,0.3456,0.3581,0.3532,0.3516,0.3513,0.3295,0.3269,0.3591,0.3591,0.3591,0.3591,0.3591,0,0.2656,0.2679,0.2748,0.2762,0.2806,0.2869,0.2934,0.2992,0.3104,0.3178,0.3266,0.3345,0.3425,0.3509,0.352,0.3575,0.3611,0.3549,0.3542,0.3304,0.328,0.3503,0.3492,0.3594,0.3593,0.3592,0.3592,0,0.2603,0.265,0.2686,0.2761,0.2784,0.2813,0.2929,0.2978,0.3094,0.3201,0.3242,0.34,0.3503,0.3576,0.365,0.3633,0.3664,0.3663,0.3387,0.3346,0.3558,0.3549,0.3648,0.3647,0.3647,0.3647,0.3647,0,0.2581,0.2594,0.2666,0.2687,0.2722,0.2782,0.2827,0.295,0.3017,0.3222,0.3269,0.3434,0.3511,0.3637,0.3632,0.3655,0.3693,0.3415,0.3307,0.3588,0.357,0.356,0.3551,0.3031,0.3026,0.3022,0.3018,0,0.2539,0.2566,0.2595,0.2635,0.2676,0.2724,0.2799,0.2855,0.3004,0.3112,0.324,0.3324,0.3475,0.3395,0.3464,0.3429,0.3389,0.3332,0.3699,0.307,0.3016,0.2996,0.3005,0.298,0.2984,0.2987,0.2989,0.2991,0.2504,0.2509,0.2544,0.2569,0.2612,0.2631,0.2629,0.2727,0.2812,0.2918,0.3088,0.3122,0.3194,0.3164,0.3087,0.3031,0.3252,0.3089,0.3097,0.3111,0.3038,0.2988,0.2933,0.2936,0.2939,0.2942,0.2944,0,0.2438,0.2447,0.2472,0.2479,0.2468,0.2532,0.2579,0.2552,0.2578,0.2715,0.2796,0.2645,0.2635,0.269,0.2563,0.2589,0.2512,0.247,0.2334,0.2377,0.2414,0.2298,0.2,0.1997,0.1993,0.199,0,0,0.2405,0.2381,0.2378,0.2317,0.2326,0.227,0.2261,0.225,0.23,0.2292,0.2301,0.2518,0.2632,0.2281,0.2258,0.2097,0.2202,0.2015,0.2785,0.2668,0.27,0.2802,0.2679,0,0,0,0,0]},{"header":{"parameterUnit":"m.s-1","parameterCategory":2,"la1":30.2991,"la2":30.254,"lo1":-89.0895,"lo2":-89.0444,"dy":0.0017,"dx":0.0017,"nx":28,"ny":28,"refTime":"2024-08-29T09:00:00:Z","depth":"2","parameterNumber":3,"parameterNumberName":"V-component_of_CURRENTS"},"data":[0,0,0,0,0,0,0,0,0,0,0,0,0,0,0,0,0,0,0,0,0,0,0,0,0,0,0,0,0,0,0,0,0,0,0,0,0,0,0,0,0,0,0,0,0,0,0,0,0,0,0,0,0,0,0,0,0,0,0.0113,0.0112,0,0.005,0.0049,0.0048,0.0002,0.0002,0.0002,0.0002,-0.0096,-0.0098,-0.0101,0,0,0,0,0,0,0,0,0,0,0,0,0,0.0141,0.0141,0.0113,0.0112,0.0112,0.005,0.0049,0.0048,0.0002,0.0002,0.0002,0.0002,-0.0095,-0.0098,-0.0101,0,0,0,0,0,0,0,0,0,0,0,0,0,0.0106,0.0141,0.0113,0.0083,0.008,0.005,0.0049,0.0047,0.0002,0.0002,0.0002,0.0002,-0.0094,-0.0098,-0.0101,-0.0119,0,0,-0.0112,-0.0114,0,0,0,0,0,0,0,0,0.0108,0.0105,0.0088,0.0086,0.0082,0.0036,0.0023,-0.0009,0.0003,0.003,0.0002,0.0002,-0.0053,-0.006,-0.0075,-0.0124,-0.0128,-0.0113,-0.0115,-0.0117,-0.0118,0,0,0,0,0,0,0,0.0111,0.0107,0.0086,0.0088,0.0084,0.0055,0.005,0.0016,-0.0012,0.0027,0.0024,0.0021,-0.0056,-0.0071,-0.0077,-0.0129,-0.0113,-0.0116,-0.0118,-0.012,-0.0183,-0.0182,0,0,0,0,0,0,0.0126,0.011,0.0088,0.0084,0.0097,0.0055,0.005,0.0049,-0.0011,-0.002,0.0021,0.0019,-0.0064,-0.0073,-0.0081,-0.0082,-0.0117,-0.012,-0.0122,-0.0183,-0.0183,-0.0182,0,0,0,0,0,0,0.0127,0.0125,0.009,0.0097,0.0091,0.0056,0.0055,0.0048,0.0038,-0.0015,-0.0024,0.002,-0.0065,-0.0076,-0.0105,-0.0087,-0.0122,-0.0125,-0.0184,-0.0183,-0.0182,-0.01,0,0,0,0,0,0,0.0128,0.0126,0.0131,0.0098,0.0091,0.0083,0.0055,0.0047,0.0037,0.0034,-0.0019,-0.0029,-0.0066,-0.0099,-0.0108,-0.0093,-0.0128,-0.0184,-0.0183,-0.0182,-0.0103,-0.0096,-0.009,0,0,0,0,0,0.013,0.0143,0.0132,0.0129,0.0099,0.0084,0.0078,0.005,0.0038,0.0039,0.0001,-0.0027,-0.0099,-0.0102,-0.0113,-0.0098,-0.0185,-0.0184,-0.0183,-0.0106,-0.0097,-0.009,0,0,0,0,0,0,0.0156,0.0139,0.0126,0.0132,0.0114,0.0078,0.0077,0.0058,0.0029,0.0027,-0.0026,-0.0038,-0.0055,-0.0089,-0.0091,-0.0113,-0.0145,-0.0146,-0.0082,-0.0075,-0.0069,-0.0052,-0.0131,0,0,0,0,0,0.0166,0.0171,0.0146,0.0151,0.0146,0.0113,0.0103,0.0087,0.0058,0.0045,0.0007,-0.0031,-0.006,-0.0077,-0.011,-0.0125,-0.0161,-0.0122,-0.0115,-0.011,-0.0104,-0.0147,-0.0144,-0.0178,-0.0178,-0.0178,0,0,0.0177,0.0169,0.017,0.0157,0.014,0.0145,0.0106,0.0102,0.0105,0.0039,0.0028,-0.0011,-0.006,-0.0075,-0.0085,-0.01,-0.0117,-0.0108,-0.0103,-0.01,-0.0146,-0.0142,-0.0139,-0.0177,-0.0177,-0.0178,0,0,0.0208,0.0196,0.0213,0.0201,0.0187,0.0173,0.0178,0.0148,0.0132,0.0116,0.0073,0.0042,-0.0003,-0.0035,-0.0057,-0.0036,-0.0082,-0.004,0.0005,-0.0036,-0.0034,-0.0032,-0.0063,-0.0065,-0.0037,-0.0036,-0.0036,0,0.0222,0.024,0.0215,0.0226,0.023,0.0193,0.0217,0.0194,0.0158,0.0149,0.0126,0.0061,0.0016,-0.0002,0.0005,-0.0021,-0.0047,-0.0018,-0.0027,-0.0027,-0.0026,-0.0059,-0.0062,-0.0032,-0.0033,-0.0033,-0.0033,0,0.0263,0.0276,0.0286,0.0294,0.0296,0.0307,0.0284,0.0275,0.0255,0.023,0.0204,0.0138,0.0101,0.0084,0.0048,0.0036,0.0017,-0.0014,-0.0044,-0.0018,-0.0054,-0.0058,-0.0026,-0.0028,-0.0029,-0.003,0,0,0.0298,0.0314,0.0318,0.0338,0.0335,0.0345,0.0351,0.0349,0.0357,0.0307,0.031,0.0245,0.0207,0.018,0.013,0.0091,0.0066,0.0049,0.0044,0.0024,-0.0014,-0.0036,-0.0044,0.0037,0.0037,0.0036,-0.0036,0,0.0339,0.0388,0.0384,0.0434,0.0462,0.0436,0.0449,0.0439,0.0415,0.0403,0.0332,0.0312,0.0246,0.0232,0.0183,0.0097,0.0057,0.0089,-0.0042,-0.0046,-0.0064,-0.0049,-0.0012,-0.0074,-0.0041,-0.0042,-0.0043,0,0.0386,0.0415,0.0474,0.0516,0.0526,0.0546,0.0569,0.0571,0.0536,0.0515,0.0474,0.0422,0.0361,0.03,0.0167,0.0194,0.0101,0.0027,0.0021,-0.0032,-0.0076,-0.0098,-0.0084,-0.0051,-0.005,-0.005,-0.0049,0,0.0438,0.0484,0.054,0.0548,0.0582,0.0601,0.0615,0.0603,0.0625,0.0582,0.0599,0.0504,0.0474,0.0343,0.0192,0.0181,0.0045,0.0004,-0.0104,-0.0106,-0.0117,-0.012,-0.0091,-0.0091,-0.0091,-0.0091,-0.0091,0,0.0489,0.0532,0.0566,0.0591,0.066,0.0657,0.0718,0.0703,0.0713,0.0757,0.0661,0.0678,0.0484,0.0388,0.023,0.0058,0.007,-0.0091,-0.0127,-0.0087,-0.0086,-0.0104,-0.0105,-0.0094,-0.0093,-0.0093,-0.0092,0,0.0535,0.0553,0.0621,0.0668,0.0685,0.0731,0.0798,0.084,0.0831,0.0887,0.0886,0.081,0.068,0.0485,0.0272,0.0121,-0.0055,-0.0122,-0.0056,-0.0083,-0.0188,-0.0184,-0.025,-0.0252,-0.0253,-0.0254,-0.0255,0,0.0563,0.0602,0.0678,0.0724,0.0745,0.0812,0.0866,0.0889,0.0948,0.0978,0.1019,0.0921,0.0872,0.0553,0.0263,-0.0015,-0.0056,-0.0169,-0.0198,-0.0177,-0.0205,-0.0199,-0.0193,-0.0178,-0.0179,-0.0179,-0.0179,0,0.0616,0.0642,0.0697,0.079,0.0858,0.0949,0.1027,0.1097,0.1137,0.1189,0.1232,0.1196,0.0911,0.063,0.0245,0.0062,-0.0126,-0.0181,-0.0176,-0.0143,-0.0115,-0.0141,-0.0136,-0.018,-0.018,-0.0179,-0.0179,-0.0179,0.0654,0.0704,0.0775,0.0864,0.0953,0.1068,0.1148,0.1245,0.1349,0.1433,0.1388,0.1338,0.103,0.054,0.0207,-0.0142,-0.0127,-0.0251,-0.0248,-0.0245,-0.0223,-0.0199,-0.0274,-0.0275,-0.0275,-0.0275,-0.0276,0,0.0702,0.0758,0.0843,0.0953,0.1057,0.1097,0.1248,0.133,0.146,0.1537,0.1565,0.1273,0.0959,0.0598,0.008,-0.0227,-0.0239,-0.032,-0.0272,-0.0267,-0.0265,-0.0242,-0.03,-0.0301,-0.0302,-0.0303,0,0,0.0728,0.0811,0.0853,0.1016,0.1101,0.1243,0.1335,0.1456,0.1544,0.1613,0.1592,0.1528,0.1083,0.0703,0.0287,-0.0014,-0.0065,-0.0063,-0.0006,0.0106,0.0113,-0.0184,-0.014,0,0,0,0,0]}],[{"header":{"parameterUnit":"m.s-1","parameterCategory":2,"la1":30.2991,"la2":30.254,"lo1":-89.0895,"lo2":-89.0444,"dy":0.0017,"dx":0.0017,"nx":28,"ny":28,"refTime":"2024-08-29T09:00:00:Z","depth":"4","parameterNumber":2,"parameterNumberName":"U-component_of_CURRENTS"},"data":[0,0,0,0,0,0,0,0,0,0,0,0,0,0,0,0,0,0,0,0,0,0,0,0,0,0,0,0,0,0,0,0,0,0,0,0,0,0,0,0,0,0,0,0,0,0,0,0,0,0,0,0,0,0,0,0,0,0,0.178,0.1781,0,0.1843,0.1844,0.1844,0.1902,0.1903,0.1904,0.1905,0.1985,0.1987,0.1988,0,0,0,0,0,0,0,0,0,0,0,0,0,0.1703,0.1704,0.178,0.1781,0.1782,0.1843,0.1844,0.1844,0.1902,0.1903,0.1904,0.1905,0.1985,0.1987,0.1988,0,0,0,0,0,0,0,0,0,0,0,0,0,0.1747,0.1704,0.178,0.1819,0.1824,0.1843,0.1844,0.1845,0.1902,0.1903,0.1904,0.1906,0.1984,0.1986,0.1988,0.1975,0,0,0.1995,0.1995,0,0,0,0,0,0,0,0,0.1744,0.1749,0.1813,0.1817,0.1822,0.1868,0.1846,0.189,0.1902,0.187,0.1905,0.1906,0.1948,0.1953,0.1959,0.1979,0.1982,0.1995,0.1996,0.1997,0.1997,0,0,0,0,0,0,0,0.1741,0.1747,0.1804,0.1814,0.1819,0.1832,0.1839,0.1854,0.19,0.1873,0.1878,0.1887,0.195,0.1957,0.1962,0.1984,0.1995,0.1996,0.1998,0.1999,0.2121,0.2123,0,0,0,0,0,0,0.1736,0.1744,0.1802,0.1806,0.1787,0.1832,0.184,0.185,0.19,0.1909,0.1886,0.189,0.1953,0.1959,0.1965,0.2061,0.1997,0.1999,0.2,0.2119,0.2121,0.2123,0,0,0,0,0,0,0.1734,0.174,0.1799,0.1777,0.1786,0.1832,0.1843,0.1851,0.19,0.191,0.1919,0.1932,0.1954,0.1962,0.2016,0.206,0.2,0.2001,0.2116,0.212,0.2122,0.2183,0,0,0,0,0,0,0.1731,0.1739,0.1763,0.1777,0.1787,0.1837,0.1842,0.1851,0.1902,0.1908,0.1951,0.1957,0.1956,0.2013,0.2018,0.2062,0.2003,0.2114,0.2118,0.2121,0.2178,0.2187,0.2195,0,0,0,0,0,0.1728,0.1748,0.1763,0.1771,0.1812,0.1838,0.1845,0.188,0.1903,0.1929,0.1962,0.1958,0.2041,0.2016,0.2022,0.2067,0.2112,0.2117,0.2121,0.2174,0.2186,0.2195,0,0,0,0,0,0,0.1729,0.1756,0.1773,0.1803,0.1832,0.1849,0.1882,0.1903,0.1949,0.1969,0.1978,0.1987,0.2053,0.2052,0.2024,0.2115,0.2079,0.2084,0.2117,0.2128,0.2136,0.2142,0.2005,0,0,0,0,0,0.1738,0.1765,0.1788,0.1818,0.1836,0.1867,0.1891,0.1915,0.1947,0.1971,0.2,0.2035,0.2067,0.2093,0.2117,0.2162,0.2165,0.2197,0.2206,0.2213,0.2223,0.2262,0.2275,0.2139,0.2138,0.2138,0,0,0.1748,0.1768,0.1785,0.1822,0.185,0.1879,0.1886,0.1934,0.1972,0.1971,0.2045,0.2068,0.2087,0.2141,0.2171,0.2152,0.2256,0.2219,0.2225,0.2231,0.2269,0.2282,0.2293,0.2142,0.2141,0.2141,0,0,0.1764,0.18,0.1824,0.1851,0.19,0.1918,0.1941,0.1982,0.2021,0.2078,0.2095,0.2147,0.2193,0.2217,0.2232,0.2303,0.23,0.2321,0.237,0.2408,0.242,0.243,0.2454,0.2465,0.2325,0.2325,0.2325,0,0.1779,0.1808,0.1837,0.1865,0.1896,0.194,0.1973,0.2013,0.2071,0.2105,0.2115,0.2207,0.2227,0.229,0.2322,0.2323,0.2342,0.2326,0.2419,0.2429,0.2438,0.246,0.2472,0.2329,0.2328,0.2328,0.2328,0,0.1797,0.184,0.186,0.1911,0.1946,0.1988,0.2036,0.2092,0.2143,0.2175,0.2263,0.2293,0.2347,0.2366,0.2369,0.2452,0.2443,0.2423,0.2388,0.2455,0.2475,0.2486,0.2334,0.2332,0.2331,0.2331,0,0,0.1777,0.1858,0.1869,0.1902,0.1978,0.2002,0.2081,0.2148,0.2203,0.2271,0.234,0.2409,0.2437,0.2458,0.2476,0.2515,0.2598,0.2509,0.2509,0.2526,0.2686,0.2522,0.2519,0.26,0.2602,0.2604,0.2674,0,0.1789,0.1843,0.1886,0.1953,0.1985,0.2055,0.2117,0.2189,0.2257,0.2335,0.2393,0.2464,0.2469,0.251,0.2554,0.2592,0.2631,0.2581,0.2625,0.2626,0.2467,0.2527,0.2612,0.2682,0.2684,0.2686,0.2688,0,0.1782,0.1824,0.1887,0.1973,0.1995,0.2049,0.2156,0.2218,0.2331,0.2387,0.2473,0.2521,0.2616,0.2598,0.27,0.2673,0.2694,0.2708,0.271,0.2544,0.2483,0.2602,0.2708,0.2706,0.2705,0.2703,0.2702,0,0.173,0.182,0.1873,0.1904,0.2008,0.2064,0.213,0.2239,0.231,0.2435,0.2504,0.2597,0.2674,0.2717,0.2772,0.2751,0.2861,0.2824,0.2692,0.2681,0.2779,0.2768,0.2887,0.2887,0.2886,0.2886,0.2886,0,0.17,0.1747,0.1861,0.1888,0.1962,0.2044,0.2139,0.2217,0.2347,0.2424,0.2537,0.2607,0.2715,0.279,0.2804,0.2787,0.2891,0.2711,0.269,0.2803,0.2794,0.2787,0.2775,0.2889,0.2888,0.2888,0.2887,0,0.163,0.1707,0.1774,0.1896,0.194,0.1994,0.2147,0.2206,0.2345,0.2455,0.2507,0.266,0.2742,0.282,0.2895,0.282,0.2817,0.2782,0.2913,0.2897,0.2601,0.2591,0.2628,0.2622,0.2618,0.2614,0.2611,0,0.1593,0.1624,0.1764,0.181,0.1875,0.1975,0.2039,0.2188,0.2253,0.2457,0.2492,0.2645,0.2721,0.2696,0.2783,0.2788,0.2757,0.2731,0.2648,0.2599,0.2577,0.2574,0.257,0.2604,0.2603,0.2602,0.2601,0,0.1524,0.1596,0.1652,0.1745,0.1825,0.1896,0.2001,0.2038,0.22,0.236,0.2415,0.2459,0.2549,0.2588,0.2622,0.2618,0.2729,0.2685,0.2693,0.2614,0.2572,0.2553,0.2554,0.2586,0.2588,0.259,0.259,0,0.1481,0.1502,0.159,0.1656,0.1747,0.1775,0.1848,0.1917,0.2,0.2216,0.2228,0.2378,0.2519,0.2502,0.253,0.2518,0.2471,0.2372,0.2395,0.2413,0.2309,0.2222,0.2119,0,0,0,0,0,0.1423,0.1432,0.1489,0.1544,0.1627,0.1677,0.1799,0.1875,0.2038,0.202,0.2116,0.218,0.2226,0.2306,0.225,0.2439,0.2484,0.2363,0.2382,0.2502,0.252,0.2417,0,0,0,0,0,0,0.1382,0.1432,0.1446,0.1432,0.1448,0.1516,0.1585,0.1698,0.1695,0.1872,0.1908,0.2045,0.2124,0.2233,0.2207,0.2231,0.2196,0.2463,0.2457,0.2492,0.2508,0.2522,0.2423,0,0,0,0,0]},{"header":{"parameterUnit":"m.s-1","parameterCategory":2,"la1":30.2991,"la2":30.254,"lo1":-89.0895,"lo2":-89.0444,"dy":0.0017,"dx":0.0017,"nx":28,"ny":28,"refTime":"2024-08-29T09:00:00:Z","depth":"4","parameterNumber":3,"parameterNumberName":"V-component_of_CURRENTS"},"data":[0,0,0,0,0,0,0,0,0,0,0,0,0,0,0,0,0,0,0,0,0,0,0,0,0,0,0,0,0,0,0,0,0,0,0,0,0,0,0,0,0,0,0,0,0,0,0,0,0,0,0,0,0,0,0,0,0,0,0.0092,0.0092,0,0.005,0.005,0.0049,0.0018,0.0018,0.0018,0.0018,-0.0055,-0.0056,-0.0058,0,0,0,0,0,0,0,0,0,0,0,0,0,0.011,0.011,0.0092,0.0092,0.0092,0.005,0.005,0.0049,0.0018,0.0018,0.0018,0.0018,-0.0054,-0.0056,-0.0058,0,0,0,0,0,0,0,0,0,0,0,0,0,0.0087,0.011,0.0093,0.0073,0.0071,0.005,0.005,0.0049,0.0018,0.0018,0.0018,0.0018,-0.0053,-0.0056,-0.0059,-0.0072,0,0,-0.0067,-0.0068,0,0,0,0,0,0,0,0,0.0089,0.0086,0.0076,0.0074,0.0072,0.0041,0.0029,0.0007,0.0018,0.0036,0.0018,0.0017,-0.0024,-0.0029,-0.0039,-0.0076,-0.0079,-0.0067,-0.0069,-0.007,-0.0071,0,0,0,0,0,0,0,0.009,0.0088,0.0074,0.0076,0.0073,0.0054,0.005,0.0025,0.0006,0.0035,0.0033,0.0031,-0.0026,-0.0036,-0.0041,-0.008,-0.0067,-0.007,-0.0071,-0.0072,-0.0124,-0.0123,0,0,0,0,0,0,0.0101,0.009,0.0075,0.0073,0.0082,0.0054,0.005,0.0049,0.0006,0.0,0.0031,0.0029,-0.0031,-0.0038,-0.0044,-0.0043,-0.007,-0.0073,-0.0074,-0.0124,-0.0124,-0.0123,0,0,0,0,0,0,0.0102,0.01,0.0077,0.0081,0.0077,0.0054,0.0053,0.0049,0.0042,0.0004,-0.0003,0.003,-0.0032,-0.004,-0.0061,-0.0047,-0.0074,-0.0076,-0.0124,-0.0124,-0.0123,-0.0055,0,0,0,0,0,0,0.0102,0.0101,0.0105,0.0082,0.0078,0.0073,0.0054,0.0048,0.0042,0.004,0.0001,-0.0006,-0.0033,-0.0057,-0.0064,-0.0051,-0.0078,-0.0125,-0.0124,-0.0124,-0.0057,-0.0052,-0.0047,0,0,0,0,0,0.0103,0.0113,0.0106,0.0104,0.0084,0.0073,0.0069,0.005,0.0043,0.0043,0.0016,-0.0004,-0.0059,-0.0059,-0.0067,-0.0055,-0.0125,-0.0124,-0.0124,-0.0059,-0.0053,-0.0047,0,0,0,0,0,0,0.0121,0.011,0.0102,0.0107,0.0094,0.0069,0.007,0.0056,0.0036,0.0035,-0.0003,-0.0012,-0.0026,-0.0052,-0.0051,-0.0069,-0.0094,-0.0095,-0.0043,-0.0037,-0.0032,-0.0021,-0.0081,0,0,0,0,0,0.0129,0.0134,0.0116,0.0121,0.0117,0.0095,0.0088,0.0077,0.0057,0.0048,0.002,-0.0008,-0.0031,-0.0042,-0.0069,-0.0078,-0.011,-0.0076,-0.0071,-0.0067,-0.0064,-0.0103,-0.0101,-0.0121,-0.0121,-0.0121,0,0,0.0137,0.0132,0.0134,0.0125,0.0114,0.012,0.009,0.0088,0.0092,0.0043,0.0037,0.0006,-0.0031,-0.0041,-0.0049,-0.006,-0.0077,-0.0066,-0.0062,-0.0062,-0.0102,-0.01,-0.0098,-0.0121,-0.0121,-0.0121,0,0,0.016,0.0152,0.0166,0.0158,0.015,0.0141,0.0144,0.0123,0.0112,0.0102,0.0069,0.0046,0.0013,-0.0012,-0.0027,-0.0013,-0.0051,-0.0017,0.002,-0.0017,-0.0016,-0.0015,-0.0046,-0.0049,-0.0012,-0.0012,-0.0012,0,0.017,0.0186,0.0168,0.0177,0.0182,0.0156,0.0176,0.0159,0.0133,0.0127,0.011,0.0061,0.0027,0.0014,0.0019,-0.0001,-0.0026,0.0003,-0.001,-0.001,-0.001,-0.0043,-0.0046,-0.0008,-0.0009,-0.0009,-0.0009,0,0.0201,0.0214,0.0222,0.0231,0.0234,0.0244,0.0228,0.0221,0.0208,0.0191,0.0171,0.0121,0.0093,0.008,0.0054,0.0041,0.0023,-0.0,-0.0022,-0.0004,-0.0039,-0.0044,-0.0004,-0.0005,-0.0006,-0.0007,0,0,0.0225,0.0243,0.0246,0.0264,0.0266,0.0274,0.028,0.0281,0.0287,0.0251,0.0253,0.0205,0.0176,0.0155,0.0116,0.0083,0.0057,0.0048,0.0044,0.0024,-0.0019,-0.003,-0.0037,0.0035,0.0034,0.0033,-0.004,0,0.0257,0.0296,0.0297,0.0339,0.0361,0.0345,0.0357,0.0351,0.0335,0.0325,0.027,0.0256,0.0206,0.0197,0.0155,0.0081,0.0046,0.0079,-0.0039,-0.0043,-0.0049,-0.0042,0.0031,-0.0044,-0.0045,-0.0046,-0.0047,0,0.0289,0.0314,0.0364,0.0401,0.041,0.043,0.045,0.0454,0.0428,0.0414,0.0383,0.0342,0.0291,0.0245,0.0128,0.0154,0.0076,0.0013,0.0008,-0.003,-0.0063,-0.007,-0.0057,-0.0056,-0.0055,-0.0054,-0.0054,0,0.0322,0.0364,0.0411,0.042,0.0453,0.0472,0.0487,0.0481,0.0497,0.0468,0.048,0.0404,0.0376,0.0268,0.014,0.0135,0.0007,-0.0019,-0.0103,-0.0105,-0.0104,-0.0104,-0.0103,-0.0103,-0.0103,-0.0103,-0.0102,0,0.0354,0.039,0.043,0.045,0.0508,0.0514,0.0565,0.0557,0.0568,0.0598,0.053,0.0532,0.0381,0.0293,0.0164,0.0019,0.0023,-0.0096,-0.0125,-0.0072,-0.0069,-0.0107,-0.0107,-0.0105,-0.0105,-0.0104,-0.0104,0,0.0375,0.04,0.0457,0.0505,0.0524,0.0562,0.0625,0.0658,0.0658,0.0694,0.0694,0.0627,0.0509,0.0353,0.0172,0.0061,-0.0085,-0.0139,-0.0062,-0.0086,-0.0178,-0.0173,-0.0238,-0.0239,-0.024,-0.0241,-0.0241,0,0.0387,0.0419,0.0494,0.0534,0.0559,0.0619,0.0666,0.0694,0.0736,0.0753,0.0774,0.0687,0.0618,0.0369,0.0185,-0.0061,-0.0102,-0.0179,-0.0191,-0.0171,-0.0193,-0.0186,-0.018,-0.0242,-0.0243,-0.0243,-0.0243,0,0.0407,0.0438,0.0484,0.0567,0.0629,0.0706,0.0772,0.0813,0.0849,0.086,0.0847,0.0723,0.0589,0.0379,0.0187,0.0008,-0.0131,-0.0189,-0.0188,-0.02,-0.0177,-0.0196,-0.019,-0.0246,-0.0246,-0.0245,-0.0245,0,0.0421,0.0458,0.0522,0.0596,0.0682,0.0766,0.0801,0.0855,0.0896,0.0914,0.0905,0.0762,0.0678,0.0415,0.0239,0.006,0.0006,-0.006,-0.0067,-0.0067,-0.0004,0.0052,0.0031,0,0,0,0,0,0.0434,0.0477,0.0545,0.0633,0.0721,0.0774,0.0864,0.0895,0.0937,0.0938,0.0925,0.0801,0.055,0.0444,0.0264,0.0199,-0.0041,-0.0021,-0.0124,-0.0262,-0.0259,-0.0217,0,0,0,0,0,0,0.0441,0.0505,0.0542,0.0653,0.0717,0.0819,0.0883,0.091,0.0912,0.0925,0.0798,0.0745,0.0501,0.0654,0.0258,0.0204,0.011,-0.0135,-0.0139,-0.0264,-0.0261,-0.0258,-0.0214,0,0,0,0,0]}]]